[[{"header":{"parameterUnit":"m.s-1","parameterCategory":1,"la1":30.2991,"la2":30.254,"lo1":-89.0895,"lo2":-89.0444,"dy":0.0017,"dx":0.0017,"nx":28,"ny":28,"refTime":"2025-08-20T09:00:00:Z","depth":0,"parameterNumber":2,"parameterNumberName":"U-component_of_WINDS"},"data":[0,0,0,0,0,0,0,0,0,0,0,0,0,0,0,0,0,0,0,0,0,0,0,0,0,0,0,0,0,0,0,0,0,0,0,0,0,0,0,0,0,0,0,0,0,0,0,0,0,0,0,0,0,0,0,0,0,0,3.3248,3.325,0,3.3408,3.341,3.3412,3.3391,3.3389,3.3386,3.3383,3.3551,3.3557,3.3564,0,0,0,0,0,0,0,0,0,0,0,0,0,3.2927,3.2933,3.3248,3.325,3.3252,3.3408,3.341,3.3412,3.3392,3.3388,3.3385,3.3382,3.3548,3.3557,3.3565,0,0,0,0,0,0,0,0,0,0,0,0,0,3.3075,3.2935,3.3247,3.326,3.3263,3.3407,3.341,3.3413,3.3392,3.3388,3.3384,3.3381,3.3546,3.3556,3.3566,3.3709,0,0,3.3598,3.3602,0,0,0,0,0,0,0,0,3.3067,3.3087,3.3256,3.326,3.3263,3.3375,3.3358,3.3512,3.3393,3.3343,3.3383,3.3379,3.3496,3.351,3.3549,3.3716,3.3724,3.3599,3.3605,3.3609,3.3612,0,0,0,0,0,0,0,3.3057,3.308,3.3311,3.3259,3.3263,3.3259,3.3276,3.3387,3.344,3.3347,3.3346,3.3365,3.3497,3.3539,3.3553,3.3726,3.3598,3.3607,3.3614,3.3618,3.4019,3.4023,0,0,0,0,0,0,3.3043,3.3071,3.3306,3.3316,3.3153,3.3268,3.3287,3.3343,3.3439,3.3449,3.3369,3.3364,3.3523,3.3541,3.3558,3.3732,3.3609,3.3619,3.3625,3.4015,3.402,3.4025,0,0,0,0,0,0,3.3036,3.3064,3.33,3.3194,3.3223,3.3278,3.3342,3.3349,3.339,3.3454,3.3464,3.3402,3.3521,3.3544,3.3671,3.3737,3.3624,3.3633,3.401,3.4016,3.4023,3.4079,0,0,0,0,0,0,3.3027,3.3061,3.3115,3.3195,3.3229,3.3409,3.3346,3.3355,3.3408,3.3403,3.3488,3.3498,3.3519,3.3656,3.3682,3.3749,3.3641,3.4004,3.4013,3.4021,3.4072,3.4087,3.41,0,0,0,0,0,3.3015,3.3126,3.3118,3.3147,3.3297,3.3413,3.3432,3.3454,3.3413,3.3469,3.351,3.3496,3.3726,3.3669,3.3698,3.377,3.4,3.401,3.402,3.4065,3.4084,3.4099,0,0,0,0,0,0,3.3053,3.3136,3.3129,3.3268,3.3333,3.3409,3.3479,3.3473,3.3552,3.3544,3.3568,3.3587,3.3716,3.3756,3.3691,3.3913,3.3858,3.3874,3.3882,3.39,3.3914,3.3902,3.365,0,0,0,0,0,3.3078,3.3163,3.3232,3.3348,3.3381,3.3425,3.3476,3.3486,3.3555,3.3583,3.3634,3.3702,3.379,3.3848,3.3932,3.4077,3.4096,3.4141,3.4155,3.4166,3.418,3.426,3.4281,3.4058,3.4058,3.4058,0,0,3.3129,3.3185,3.3238,3.3357,3.3409,3.3498,3.3448,3.3545,3.3611,3.3598,3.3721,3.3761,3.3839,3.3976,3.4039,3.4013,3.4246,3.4179,3.4188,3.4195,3.4273,3.4294,3.4312,3.4065,3.4064,3.4062,0,0,3.3269,3.332,3.3422,3.3475,3.3554,3.3582,3.3606,3.3684,3.3709,3.3833,3.3825,3.3905,3.4056,3.4112,3.416,3.4321,3.4311,3.4348,3.4422,3.45,3.4517,3.4533,3.459,3.4611,3.4362,3.4362,3.4362,0,3.3323,3.3456,3.3476,3.3573,3.3626,3.3617,3.3721,3.3772,3.3875,3.3912,3.3882,3.407,3.4123,3.4272,3.4312,3.4351,3.4381,3.4338,3.4513,3.4529,3.4544,3.4599,3.4621,3.4366,3.4365,3.4365,3.4364,0,3.3519,3.3612,3.3685,3.3783,3.3844,3.3945,3.398,3.404,3.4046,3.4077,3.4204,3.4266,3.4363,3.4399,3.4406,3.4551,3.4532,3.4507,3.4452,3.4569,3.4621,3.4642,3.4371,3.437,3.4369,3.4368,0,0,3.3687,3.3794,3.3821,3.3866,3.3952,3.4024,3.4125,3.4218,3.4269,3.4341,3.4426,3.4554,3.4531,3.4586,3.4599,3.4667,3.4791,3.4634,3.4636,3.4661,3.4954,3.4972,3.4996,3.4785,3.4789,3.4792,3.4948,0,3.3835,3.4011,3.4031,3.4189,3.4274,3.4268,3.4355,3.4419,3.4451,3.453,3.4566,3.4656,3.4619,3.4653,3.472,3.4761,3.485,3.4751,3.4865,3.4869,3.4845,3.5024,3.5043,3.5186,3.4968,3.4972,3.4974,0,3.4031,3.4106,3.4272,3.4346,3.4383,3.4461,3.4549,3.4623,3.4695,3.4714,3.4775,3.478,3.4885,3.4825,3.4971,3.4902,3.4951,3.4978,3.4985,3.4996,3.4928,3.5039,3.5233,3.5254,3.5006,3.5004,3.5002,0,3.4136,3.428,3.4397,3.4435,3.4525,3.458,3.4621,3.4689,3.4743,3.482,3.4856,3.4945,3.4994,3.5063,3.5091,3.5046,3.5235,3.5178,3.5254,3.5254,3.5294,3.5291,3.5498,3.5326,3.5326,3.5325,3.5325,0,3.4299,3.44,3.4446,3.4518,3.4632,3.4655,3.4767,3.4805,3.4866,3.4946,3.4946,3.5022,3.5055,3.5136,3.516,3.5276,3.5299,3.5318,3.5322,3.5317,3.5315,3.5349,3.534,3.5331,3.533,3.5329,3.5328,0,3.4436,3.447,3.4598,3.4672,3.4693,3.4774,3.4838,3.4908,3.494,3.5042,3.5067,3.5117,3.5213,3.5248,3.5365,3.5381,3.5516,3.5513,3.5491,3.5492,3.5566,3.5559,3.5802,3.5835,3.5642,3.5643,3.5645,0,3.4537,3.4615,3.4697,3.475,3.4792,3.4878,3.4934,3.496,3.5018,3.5106,3.5166,3.5261,3.5338,3.5491,3.5539,3.5628,3.5627,3.5706,3.5641,3.5633,3.5629,3.5623,3.5631,3.5718,3.572,3.5722,3.5723,0,3.4713,3.4726,3.4806,3.4892,3.4958,3.5027,3.5095,3.5139,3.5175,3.5241,3.5337,3.5397,3.5516,3.561,3.5702,3.5745,3.5741,3.5744,3.5766,3.5761,3.5745,3.5755,3.5524,3.5738,3.5736,3.5735,3.5735,3.5734,3.4836,3.4904,3.4973,3.5062,3.5115,3.5177,3.5247,3.5287,3.5368,3.5466,3.5477,3.5581,3.5652,3.5774,3.5821,3.5904,3.5883,3.5915,3.5923,3.5931,3.5936,3.5732,3.5921,3.592,3.592,3.592,3.592,0,3.5012,3.5055,3.5137,3.523,3.53,3.5289,3.5363,3.5422,3.5514,3.5579,3.5655,3.5767,3.5858,3.5913,3.6005,3.6061,3.6061,3.6084,3.608,3.609,3.595,3.5921,3.6082,3.6082,3.6082,3.6082,3.6082,3.6082,3.5111,3.5227,3.5248,3.539,3.5433,3.5535,3.5578,3.5636,3.5688,3.5812,3.5888,3.5923,3.5984,3.6081,3.6165,3.6179,3.6213,3.6237,3.6249,3.6117,3.61,3.6084,3.6057,3.6245,3.6245,3.6383,3.6384,3.6385]},{"header":{"parameterUnit":"m.s-1","parameterCategory":1,"la1":30.2991,"la2":30.254,"lo1":-89.0895,"lo2":-89.0444,"dy":0.0017,"dx":0.0017,"nx":28,"ny":28,"refTime":"2025-08-20T09:00:00:Z","depth":0,"parameterNumber":3,"parameterNumberName":"V-component_of_WINDS"},"data":[0,0,0,0,0,0,0,0,0,0,0,0,0,0,0,0,0,0,0,0,0,0,0,0,0,0,0,0,0,0,0,0,0,0,0,0,0,0,0,0,0,0,0,0,0,0,0,0,0,0,0,0,0,0,0,0,0,0,-0.748,-0.748,0,-0.7476,-0.7475,-0.7475,-0.7484,-0.7484,-0.7485,-0.7485,-0.7478,-0.7477,-0.7477,0,0,0,0,0,0,0,0,0,0,0,0,0,-0.7495,-0.7495,-0.748,-0.748,-0.748,-0.7476,-0.7475,-0.7475,-0.7484,-0.7484,-0.7485,-0.7485,-0.7478,-0.7477,-0.7477,0,0,0,0,0,0,0,0,0,0,0,0,0,-0.7489,-0.7495,-0.748,-0.7484,-0.7484,-0.7476,-0.7475,-0.7475,-0.7484,-0.7484,-0.7485,-0.7485,-0.7478,-0.7477,-0.7477,-0.7464,0,0,-0.7475,-0.7474,0,0,0,0,0,0,0,0,-0.749,-0.7489,-0.7483,-0.7484,-0.7484,-0.7481,-0.7478,-0.7471,-0.7484,-0.7484,-0.7485,-0.7485,-0.7478,-0.7478,-0.7476,-0.7463,-0.7463,-0.7475,-0.7474,-0.7474,-0.7474,0,0,0,0,0,0,0,-0.749,-0.7489,-0.7478,-0.7483,-0.7484,-0.7485,-0.7485,-0.7477,-0.7479,-0.7484,-0.7485,-0.7484,-0.7478,-0.7476,-0.7476,-0.7463,-0.7475,-0.7474,-0.7473,-0.7473,-0.7439,-0.7439,0,0,0,0,0,0,-0.749,-0.7489,-0.7478,-0.7478,-0.7488,-0.7485,-0.7484,-0.7481,-0.7479,-0.7479,-0.7484,-0.7484,-0.7477,-0.7476,-0.7475,-0.7459,-0.7474,-0.7473,-0.7473,-0.744,-0.7439,-0.7439,0,0,0,0,0,0,-0.7491,-0.7489,-0.7479,-0.7484,-0.7483,-0.7484,-0.7481,-0.7481,-0.7479,-0.7479,-0.7479,-0.7481,-0.7478,-0.7476,-0.7467,-0.7459,-0.7473,-0.7472,-0.744,-0.744,-0.7439,-0.7428,0,0,0,0,0,0,-0.7491,-0.7489,-0.7485,-0.7484,-0.7482,-0.747,-0.748,-0.7481,-0.7478,-0.7479,-0.7476,-0.7476,-0.7478,-0.7468,-0.7466,-0.7459,-0.7472,-0.7441,-0.744,-0.7439,-0.7429,-0.7427,-0.7425,0,0,0,0,0,-0.7491,-0.7481,-0.7484,-0.7483,-0.7477,-0.747,-0.7469,-0.7472,-0.7477,-0.7472,-0.7472,-0.7476,-0.7461,-0.7466,-0.7465,-0.7457,-0.7441,-0.744,-0.7439,-0.7429,-0.7427,-0.7425,0,0,0,0,0,0,-0.748,-0.7481,-0.7485,-0.7474,-0.7472,-0.7472,-0.7465,-0.7469,-0.7465,-0.7466,-0.7469,-0.7468,-0.7458,-0.7457,-0.7463,-0.7444,-0.7452,-0.745,-0.7445,-0.7443,-0.7441,-0.7441,-0.7471,0,0,0,0,0,-0.7477,-0.7472,-0.7473,-0.7463,-0.7462,-0.7464,-0.7461,-0.7463,-0.7461,-0.746,-0.7459,-0.7456,-0.7451,-0.7447,-0.7442,-0.7429,-0.7428,-0.7423,-0.7421,-0.742,-0.7418,-0.7411,-0.7408,-0.7435,-0.7435,-0.7435,0,0,-0.7469,-0.7469,-0.7465,-0.7461,-0.7459,-0.7454,-0.7463,-0.7456,-0.7452,-0.7459,-0.745,-0.7449,-0.7446,-0.7435,-0.743,-0.7433,-0.741,-0.7418,-0.7417,-0.7416,-0.7409,-0.7407,-0.7404,-0.7434,-0.7434,-0.7435,0,0,-0.7451,-0.7451,-0.7443,-0.7442,-0.744,-0.7442,-0.744,-0.7439,-0.7439,-0.743,-0.7435,-0.743,-0.742,-0.7418,-0.7415,-0.7398,-0.7402,-0.7397,-0.7386,-0.7379,-0.7377,-0.7375,-0.7368,-0.7366,-0.7395,-0.7395,-0.7395,0,-0.7441,-0.7433,-0.7438,-0.7431,-0.7429,-0.7436,-0.7428,-0.7426,-0.7423,-0.7421,-0.7425,-0.7414,-0.7412,-0.74,-0.7396,-0.7394,-0.7392,-0.7396,-0.7377,-0.7375,-0.7374,-0.7367,-0.7365,-0.7394,-0.7394,-0.7394,-0.7395,0,-0.7421,-0.7416,-0.7409,-0.7407,-0.7404,-0.7396,-0.7399,-0.7396,-0.7399,-0.7399,-0.739,-0.7389,-0.7384,-0.7381,-0.7384,-0.737,-0.7372,-0.7377,-0.7384,-0.737,-0.7364,-0.7362,-0.7393,-0.7394,-0.7394,-0.7394,0,0,-0.7395,-0.7396,-0.7393,-0.7392,-0.7392,-0.7387,-0.738,-0.7376,-0.7372,-0.737,-0.7363,-0.7356,-0.736,-0.7357,-0.736,-0.7354,-0.734,-0.736,-0.736,-0.7355,-0.7323,-0.7319,-0.7316,-0.7343,-0.7342,-0.7342,-0.7323,0,-0.7377,-0.7365,-0.737,-0.7357,-0.7352,-0.7359,-0.7353,-0.7351,-0.7352,-0.7347,-0.7348,-0.7343,-0.735,-0.7348,-0.7343,-0.7343,-0.7333,-0.7344,-0.7335,-0.7335,-0.7335,-0.7313,-0.7308,-0.729,-0.7321,-0.7321,-0.732,0,-0.7355,-0.7352,-0.7339,-0.734,-0.7338,-0.7332,-0.7328,-0.7324,-0.7323,-0.7324,-0.7321,-0.7325,-0.7317,-0.7326,-0.7315,-0.7322,-0.7319,-0.7319,-0.7318,-0.7317,-0.7326,-0.7309,-0.7285,-0.7282,-0.7317,-0.7317,-0.7317,0,-0.7336,-0.7329,-0.7321,-0.732,-0.732,-0.7316,-0.7316,-0.7315,-0.7312,-0.7309,-0.7307,-0.7303,-0.73,-0.7297,-0.7299,-0.7306,-0.7288,-0.7297,-0.7288,-0.7287,-0.7282,-0.7282,-0.7256,-0.7282,-0.7282,-0.7282,-0.7282,0,-0.7315,-0.7306,-0.7312,-0.7307,-0.7298,-0.7303,-0.7294,-0.7294,-0.7294,-0.7288,-0.7294,-0.7289,-0.7293,-0.7288,-0.729,-0.728,-0.7279,-0.7279,-0.7279,-0.7278,-0.7278,-0.7275,-0.7276,-0.7282,-0.7282,-0.7282,-0.7282,0,-0.7291,-0.7295,-0.7286,-0.7288,-0.7288,-0.7281,-0.7282,-0.7277,-0.7279,-0.7272,-0.7271,-0.7273,-0.7268,-0.727,-0.7264,-0.7265,-0.7253,-0.7255,-0.7253,-0.7253,-0.7244,-0.7244,-0.7214,-0.7209,-0.7239,-0.7239,-0.7239,0,-0.7277,-0.7271,-0.7272,-0.7269,-0.7269,-0.7264,-0.7262,-0.7267,-0.7264,-0.7262,-0.7257,-0.7252,-0.7248,-0.7239,-0.7239,-0.7235,-0.7236,-0.7226,-0.7236,-0.7234,-0.7235,-0.7235,-0.7234,-0.7224,-0.7223,-0.7223,-0.7223,0,-0.7251,-0.7253,-0.725,-0.7247,-0.7244,-0.7242,-0.724,-0.7238,-0.7243,-0.7239,-0.7234,-0.7231,-0.7225,-0.722,-0.7216,-0.7215,-0.7219,-0.722,-0.7218,-0.7215,-0.7214,-0.7214,-0.7247,-0.722,-0.7221,-0.7221,-0.7221,-0.7221,-0.7231,-0.7226,-0.7226,-0.7222,-0.7222,-0.722,-0.7215,-0.7217,-0.7213,-0.7209,-0.7212,-0.7206,-0.7205,-0.72,-0.7199,-0.7193,-0.7197,-0.7194,-0.7193,-0.7191,-0.719,-0.7216,-0.7193,-0.7193,-0.7193,-0.7193,-0.7193,0,-0.7204,-0.7205,-0.7201,-0.7199,-0.7196,-0.7202,-0.7201,-0.7197,-0.7192,-0.7191,-0.7187,-0.7181,-0.7176,-0.7177,-0.7173,-0.7168,-0.717,-0.7167,-0.7166,-0.7166,-0.7187,-0.7189,-0.7165,-0.7165,-0.7165,-0.7165,-0.7165,-0.7165,-0.719,-0.7181,-0.7184,-0.7175,-0.7176,-0.717,-0.7169,-0.7167,-0.7167,-0.716,-0.7156,-0.7157,-0.7157,-0.7152,-0.7148,-0.7149,-0.7146,-0.7142,-0.7142,-0.7162,-0.7164,-0.7167,-0.7169,-0.7141,-0.7141,-0.7122,-0.7122,-0.7122]}]]